Location: Ch�tillon
(48.8024°N, 2.2935°E)
Time: 01:09:43
(UTC+00:00)

Meteor 1-21 Rocket - Pass Details

Date: 16 October 2021
Orbit: 834 x 907 km, 81.2° (Epoch: 06 December)

Event Time Altitude Azimuth Distance (km) Brightness Sun altitude
Rises 18:14:45 0° 348° (NNW) 3,487 7.6 -13.2°
Reaches altitude 10° 18:17:11 10° 349° (NNW) 2,555 6.9 -13.6°
Maximum altitude 18:23:02 88° 80° (E) 902 4.3 -14.6°
Drops below altitude 10° 18:28:56 10° 169° (S) 2,575 6.6 -15.5°
Sets 18:31:23 0° 170° (S) 3,516 7.3 -15.9°
